Armenevo, Russia

6:42 PM MSK on January 22, 2017 (GMT +0300)
Domodedovo

Weather History for UUDD - August, 2010

Change the Weather History Date:

Tuesday, August 17, 2010

  Actual Average Record
Temperature  
Mean Temperature 73 °F -  
Max Temperature 84 °F - - ()
Min Temperature 62 °F - - ()
Cooling Degree Days 8    
Growing Degree Days 23 (Base 50)    
Moisture  
Dew Point 63 °F    
Average Humidity 76    
Maximum Humidity 94    
Minimum Humidity 45    
Precipitation  
Precipitation 0.00 in - - ()
Sea Level Pressure  
Sea Level Pressure 29.99 in    
Wind  
Wind Speed 3 mph ()    
Max Wind Speed 13 mph    
Max Gust Speed -    
Visibility 2.9 miles    
Events      
T = Trace of Precipitation, MM = Missing Value Source: Averaged Metar Reports

Daily Weather History Graph

Daily Weather History Graph

Search for Another Location

Airport or City:

Trip Planner

Search our weather history database for the weather conditions in past years. The results will help you decide how hot, cold, wet, or windy it might be!

Date:

Astronomy

Aug. 17, 2010 Rise Set
Actual Time 6:04 AM MSD 8:59 PM MSD
Civil Twilight 5:22 AM MSD 9:40 PM MSD
Nautical Twilight 4:26 AM MSD 10:36 PM MSD
Astronomical Twilight 3:11 AM MSD 11:49 PM MSD
Moon 4:32 PM MSD (8/17) 11:18 PM MSD (8/17)
Length of Visible Light 16h 18m
Length of Day
14h 54m
First Quarter, 56% of the Moon is Illuminated
Aug 17
First Quarter
Aug 24
Full
Sep 1
Last Quarter
Sep 8
New
Sep 15
First Quarter

Hourly Weather History & Observations

Time (MSD) Temp. Heat Index Dew Point Humidity Pressure Visibility Wind Dir Wind Speed Gust Speed Precip Events Conditions
12:00 AM 66.2 °F - 62.6 °F 88% 30.04 in - Calm Calm - N/A   Clear
12:30 AM 64.4 °F - 62.6 °F 94% 30.04 in 6.2 mi Calm Calm - N/A   Scattered Clouds
1:00 AM 64.4 °F - 62.6 °F 94% 30.04 in - Calm Calm - N/A   Clear
1:30 AM 64.4 °F - 60.8 °F 88% 30.04 in - Calm Calm - N/A   Clear
2:00 AM 64.4 °F - 60.8 °F 88% 30.04 in 5.0 mi Calm Calm - N/A   Partly Cloudy
2:30 AM 64.4 °F - 60.8 °F 88% 30.04 in 3.1 mi Calm Calm - N/A   Partly Cloudy
3:00 AM 64.4 °F - 60.8 °F 88% 30.04 in 3.1 mi Calm Calm - N/A   Partly Cloudy
3:30 AM 62.6 °F - 60.8 °F 94% 30.04 in 3.1 mi Calm Calm - N/A   Clear
4:00 AM 62.6 °F - 60.8 °F 94% 30.04 in 3.1 mi Calm Calm - N/A   Clear
4:30 AM 62.6 °F - 60.8 °F 94% 30.04 in - Calm Calm - N/A   Clear
5:00 AM 62.6 °F - 60.8 °F 94% 30.04 in - Calm Calm - N/A   Scattered Clouds
5:30 AM 64.4 °F - 62.6 °F 94% 30.04 in - Calm Calm - N/A   Scattered Clouds
6:00 AM 64.4 °F - 62.6 °F 94% 30.04 in - Calm Calm - N/A   Scattered Clouds
6:30 AM 64.4 °F - 62.6 °F 94% 30.04 in - NE 4.5 mph - N/A   Scattered Clouds
7:00 AM 64.4 °F - 62.6 °F 94% 30.04 in - Calm Calm - N/A   Scattered Clouds
7:30 AM 66.2 °F - 64.4 °F 94% 30.04 in 2.5 mi Variable 2.2 mph - N/A   Mostly Cloudy
8:00 AM 68.0 °F - 64.4 °F 88% 30.04 in - ENE 4.5 mph - N/A   Mostly Cloudy
8:30 AM 68.0 °F - 64.4 °F 88% 30.04 in - ENE 4.5 mph - N/A   Mostly Cloudy
9:00 AM 68.0 °F - 64.4 °F 88% 30.04 in - ENE 4.5 mph - N/A   Mostly Cloudy
9:30 AM 69.8 °F - 64.4 °F 83% 30.04 in 1.9 mi NE 6.7 mph - N/A   Mostly Cloudy
10:00 AM 69.8 °F - 64.4 °F 83% 30.04 in 1.6 mi NE 8.9 mph - N/A   Mostly Cloudy
10:30 AM 71.6 °F - 66.2 °F 83% 30.04 in 1.4 mi NE 8.9 mph - N/A   Mostly Cloudy
11:00 AM 71.6 °F - 64.4 °F 78% 30.04 in 1.2 mi NE 8.9 mph - N/A   Mostly Cloudy
11:30 AM 71.6 °F - 64.4 °F 78% 30.04 in 1.4 mi ENE 8.9 mph - N/A   Smoke
12:00 PM 73.4 °F - 64.4 °F 73% 30.04 in 1.4 mi East 8.9 mph - N/A   Smoke
12:30 PM 75.2 °F - 64.4 °F 69% 30.04 in 1.3 mi Variable 2.2 mph - N/A   Smoke
1:00 PM 75.2 °F - 64.4 °F 69% 30.04 in 1.3 mi East 8.9 mph - N/A   Smoke
1:30 PM 78.8 °F - 64.4 °F 61% 30.01 in 1.4 mi East 6.7 mph - N/A   Smoke
2:00 PM 80.6 °F 81.8 °F 62.6 °F 54% 30.01 in 1.6 mi SE 6.7 mph - N/A   Smoke
2:30 PM 80.6 °F 81.8 °F 62.6 °F 54% 30.01 in 1.8 mi ESE 4.5 mph - N/A   Smoke
3:00 PM 82.4 °F 83.4 °F 62.6 °F 51% 29.98 in - ESE 6.7 mph - N/A   Smoke
3:30 PM 84.2 °F 85.0 °F 62.6 °F 48% 29.98 in 2.2 mi East 4.5 mph - N/A   Smoke
4:00 PM 84.2 °F 84.4 °F 60.8 °F 45% 29.98 in - Variable 2.2 mph - N/A   Smoke
4:30 PM 82.4 °F 83.9 °F 64.4 °F 54% 29.95 in 3.1 mi NE 6.7 mph - N/A   Smoke
5:00 PM 82.4 °F 83.9 °F 64.4 °F 54% 29.95 in - ENE 8.9 mph - N/A   Smoke
5:30 PM 82.4 °F 83.9 °F 64.4 °F 54% 29.95 in 3.1 mi ENE 8.9 mph - N/A   Smoke
6:00 PM 82.4 °F 83.9 °F 64.4 °F 54% 29.92 in 3.1 mi East 8.9 mph - N/A   Smoke
6:30 PM 82.4 °F 83.9 °F 64.4 °F 54% 29.92 in 3.1 mi East 8.9 mph - N/A   Smoke
7:00 PM 82.4 °F 83.9 °F 64.4 °F 54% 29.92 in 4.3 mi East 8.9 mph - N/A   Scattered Clouds
7:30 PM 80.6 °F 82.3 °F 64.4 °F 58% 29.89 in 5.0 mi East 8.9 mph - N/A   Scattered Clouds
8:00 PM 78.8 °F - 64.4 °F 61% 29.89 in 5.0 mi East 8.9 mph - N/A   Scattered Clouds
8:30 PM 77.0 °F - 66.2 °F 69% 29.89 in - East 8.9 mph - N/A   Clear
9:00 PM 75.2 °F - 64.4 °F 69% 29.89 in - East 8.9 mph - N/A   Clear
9:30 PM 73.4 °F - 64.4 °F 73% 29.89 in - East 6.7 mph - N/A   Clear
10:00 PM 73.4 °F - 64.4 °F 73% 29.89 in - East 8.9 mph - N/A   Clear
10:30 PM 71.6 °F - 66.2 °F 83% 29.89 in - East 6.7 mph - N/A   Clear
11:00 PM 71.6 °F - 64.4 °F 78% 29.89 in - East 8.9 mph - N/A   Clear
11:30 PM 71.6 °F - 64.4 °F 78% 29.89 in 6.2 mi NNE 13.4 mph - N/A   Scattered Clouds